Orbital Elements at Epoch 2459000.5 (2020-May-31.0) TDB
Reference: JPL 17 (heliocentric ecliptic J2000)
Element | Value | Uncertainty (1-sigma) | Units |
e | .2614750262020415 | 4.8211e-08 | |
a | 2.601699643248651 | 1.9776e-08 | au |
q | 1.921420160860368 | 1.2584e-07 | au |
i | 14.52698875272097 | 6.8105e-06 | deg |
node | 336.5245940228951 | 1.5273e-05 | deg |
peri | 27.29843732035706 | 2.0477e-05 | deg |
M | 112.8056427525858 | 1.3948e-05 | deg |
tp | 2458520.200110600234 (2019-Feb-05.70011060) | 5.6233e-05 | TDB |
period | 1532.795310276729 4.20 | 1.7476e-05 4.785e-08 | d yr |
n | .2348650192144742 | 2.6779e-09 | deg/d |
Q | 3.281979125636934 | 2.4947e-08 | au |
|
| | Orbit Determination Parameters
Additional Information
|